contact:dominique.lefevre@mio.osupytheas.fr, maurice.libes@osupytheas.fr, didier.mallarino@osupytheas.fr
Project:EMSO http://www.emso-fr.org/EMSO-France
Depth: 2436.0 m
Title:EMSO Ligure Ouest : Data MII capteur CSTAR
DateTime,Latitude,Longitude,Instrument_Serial,Reference_Counts,Signal_Counts,Corrected_Signal_raw_counts,Calculated_Beam_c_inverse_meters,Internal_thermistor_counts
DateTime,Latitude,Longitude,Instrument_Serial,Reference_Counts,Signal_Counts,Corrected_Signal_raw_counts,Calculated_Beam_c_inverse_meters,Internal_thermistor_counts
2019-09-23T00:01:30,42.805,6.029,CST-1368DR,7915,11084,15382,0.060,551
2019-09-23T00:04:32,42.805,6.029,CST-1368DR,7915,11084,15382,0.060,551
2019-09-23T00:07:33,42.805,6.029,CST-1368DR,7915,11082,15379,0.061,551
2019-09-23T00:10:35,42.805,6.029,CST-1368DR,7915,11085,15382,0.060,551
2019-09-23T00:13:37,42.805,6.029,CST-1368DR,7915,11086,15384,0.060,550
2019-09-23T00:16:38,42.805,6.029,CST-1368DR,7915,11084,15382,0.060,551
2019-09-23T00:19:40,42.805,6.029,CST-1368DR,7915,11083,15380,0.061,551
2019-09-23T00:22:41,42.805,6.029,CST-1368DR,7915,11084,15381,0.061,551
2019-09-23T00:25:43,42.805,6.029,CST-1368DR,7915,11083,15380,0.061,551
2019-09-23T00:28:45,42.805,6.029,CST-1368DR,7915,11082,15379,0.061,551
2019-09-23T00:31:46,42.805,6.029,CST-1368DR,7915,11083,15381,0.061,550
2019-09-23T00:34:48,42.805,6.029,CST-1368DR,7915,11084,15381,0.061,551
2019-09-23T00:37:50,42.805,6.029,CST-1368DR,7915,11084,15381,0.061,551
2019-09-23T00:40:51,42.805,6.029,CST-1368DR,7915,11083,15381,0.061,550
2019-09-23T00:43:53,42.805,6.029,CST-1368DR,7915,11085,15382,0.060,551
2019-09-23T00:46:54,42.805,6.029,CST-1368DR,7915,11085,15382,0.060,551
2019-09-23T00:49:56,42.805,6.029,CST-1368DR,7915,11084,15382,0.060,551
2019-09-23T00:52:58,42.805,6.029,CST-1368DR,7915,11085,15383,0.060,551
2019-09-23T00:56:00,42.805,6.029,CST-1368DR,7915,11083,15381,0.061,551
2019-09-23T00:59:01,42.805,6.029,CST-1368DR,7915,11082,15379,0.061,551
2019-09-23T01:02:03,42.805,6.029,CST-1368DR,7915,11085,15383,0.060,551
2019-09-23T01:05:05,42.805,6.029,CST-1368DR,7915,11083,15380,0.061,551
2019-09-23T01:08:06,42.805,6.029,CST-1368DR,7915,11084,15381,0.061,551
2019-09-23T01:11:08,42.805,6.029,CST-1368DR,7915,11083,15380,0.061,551
2019-09-23T01:14:10,42.805,6.029,CST-1368DR,7915,11084,15381,0.061,551
2019-09-23T01:17:11,42.805,6.029,CST-1368DR,7915,11083,15381,0.061,551
2019-09-23T01:20:13,42.805,6.029,CST-1368DR,7915,11083,15381,0.061,551
2019-09-23T01:23:15,42.805,6.029,CST-1368DR,7915,11082,15379,0.061,551
2019-09-23T01:26:16,42.805,6.029,CST-1368DR,7915,11083,15380,0.061,551
2019-09-23T01:29:18,42.805,6.029,CST-1368DR,7915,11082,15378,0.061,551
2019-09-23T01:32:19,42.805,6.029,CST-1368DR,7915,11081,15377,0.062,551
2019-09-23T01:35:21,42.805,6.029,CST-1368DR,7915,11083,15381,0.061,551
2019-09-23T01:38:23,42.805,6.029,CST-1368DR,7915,11083,15380,0.061,551
2019-09-23T01:41:24,42.805,6.029,CST-1368DR,7915,11083,15381,0.061,551
2019-09-23T01:44:26,42.805,6.029,CST-1368DR,7915,11082,15379,0.061,551
2019-09-23T01:47:28,42.805,6.029,CST-1368DR,7915,11083,15381,0.061,551
2019-09-23T01:50:29,42.805,6.029,CST-1368DR,7915,11083,15381,0.061,551
2019-09-23T01:53:31,42.805,6.029,CST-1368DR,7915,11083,15380,0.061,551
2019-09-23T01:56:33,42.805,6.029,CST-1368DR,7915,11082,15379,0.061,550
2019-09-23T01:59:34,42.805,6.029,CST-1368DR,7915,11082,15379,0.061,551
2019-09-23T02:02:36,42.805,6.029,CST-1368DR,7915,11084,15381,0.061,551
2019-09-23T02:05:37,42.805,6.029,CST-1368DR,7915,11084,15382,0.060,550
2019-09-23T02:08:39,42.805,6.029,CST-1368DR,7915,11083,15380,0.061,551
2019-09-23T02:11:41,42.805,6.029,CST-1368DR,7915,11084,15382,0.060,551
2019-09-23T02:14:42,42.805,6.029,CST-1368DR,7914,11083,15381,0.061,551
2019-09-23T02:17:44,42.805,6.029,CST-1368DR,7914,11082,15380,0.061,551
2019-09-23T02:20:46,42.805,6.029,CST-1368DR,7914,11084,15383,0.060,551
2019-09-23T02:23:48,42.805,6.029,CST-1368DR,7914,11083,15382,0.060,551
2019-09-23T02:26:49,42.805,6.029,CST-1368DR,7914,11082,15381,0.061,551
2019-09-23T02:29:51,42.805,6.029,CST-1368DR,7914,11082,15381,0.061,551
2019-09-23T02:32:53,42.805,6.029,CST-1368DR,7914,11078,15375,0.062,551
2019-09-23T02:35:54,42.805,6.029,CST-1368DR,7914,11081,15379,0.061,551
2019-09-23T02:38:56,42.805,6.029,CST-1368DR,7914,11081,15380,0.061,551
2019-09-23T02:41:57,42.805,6.029,CST-1368DR,7914,11080,15378,0.061,551
2019-09-23T02:44:59,42.805,6.029,CST-1368DR,7914,11083,15382,0.060,551
2019-09-23T02:48:01,42.805,6.029,CST-1368DR,7914,11083,15382,0.060,550
2019-09-23T02:51:02,42.805,6.029,CST-1368DR,7914,11083,15382,0.060,551
2019-09-23T02:54:04,42.805,6.029,CST-1368DR,7914,11083,15382,0.060,551
2019-09-23T02:57:06,42.805,6.029,CST-1368DR,7914,11083,15381,0.061,551
2019-09-23T03:00:07,42.805,6.029,CST-1368DR,7914,11083,15381,0.061,551
2019-09-23T03:03:09,42.805,6.029,CST-1368DR,7914,11082,15381,0.061,551
2019-09-23T03:06:11,42.805,6.029,CST-1368DR,7914,11081,15379,0.061,551
2019-09-23T03:09:12,42.805,6.029,CST-1368DR,7914,11082,15380,0.061,551
2019-09-23T03:12:14,42.805,6.029,CST-1368DR,7914,11081,15379,0.061,551
2019-09-23T03:15:16,42.805,6.029,CST-1368DR,7914,11082,15380,0.061,550
2019-09-23T03:18:17,42.805,6.029,CST-1368DR,7914,11080,15378,0.061,551
2019-09-23T03:21:19,42.805,6.029,CST-1368DR,7914,11080,15378,0.061,551
2019-09-23T03:24:21,42.805,6.029,CST-1368DR,7914,11081,15380,0.061,551
2019-09-23T03:27:22,42.805,6.029,CST-1368DR,7914,11081,15379,0.061,551
2019-09-23T03:30:24,42.805,6.029,CST-1368DR,7914,11083,15382,0.060,551
2019-09-23T03:33:26,42.805,6.029,CST-1368DR,7914,11083,15382,0.060,551
2019-09-23T03:36:27,42.805,6.029,CST-1368DR,7914,11083,15382,0.060,551
2019-09-23T03:39:29,42.805,6.029,CST-1368DR,7914,11082,15381,0.061,551
2019-09-23T03:42:31,42.805,6.029,CST-1368DR,7914,11082,15381,0.061,551
2019-09-23T03:45:32,42.805,6.029,CST-1368DR,7914,11082,15381,0.061,551
2019-09-23T03:48:34,42.805,6.029,CST-1368DR,7914,11082,15380,0.061,551
2019-09-23T03:51:36,42.805,6.029,CST-1368DR,7914,11082,15381,0.061,550
2019-09-23T03:54:37,42.805,6.029,CST-1368DR,7914,11082,15381,0.061,551
2019-09-23T03:57:39,42.805,6.029,CST-1368DR,7914,11080,15378,0.061,551
2019-09-23T04:00:40,42.805,6.029,CST-1368DR,7914,11080,15378,0.061,551
2019-09-23T04:03:42,42.805,6.029,CST-1368DR,7914,11081,15379,0.061,551
2019-09-23T04:06:44,42.805,6.029,CST-1368DR,7914,11081,15379,0.061,550
2019-09-23T04:09:45,42.805,6.029,CST-1368DR,7914,11082,15380,0.061,551
2019-09-23T04:12:47,42.805,6.029,CST-1368DR,7914,11081,15379,0.061,551
2019-09-23T04:15:49,42.805,6.029,CST-1368DR,7914,11082,15380,0.061,550
2019-09-23T04:18:50,42.805,6.029,CST-1368DR,7914,11080,15378,0.061,551
2019-09-23T04:21:52,42.805,6.029,CST-1368DR,7914,11081,15380,0.061,551
2019-09-23T04:24:54,42.805,6.029,CST-1368DR,7914,11081,15380,0.061,551
2019-09-23T04:27:55,42.805,6.029,CST-1368DR,7914,11082,15380,0.061,551
2019-09-23T04:30:57,42.805,6.029,CST-1368DR,7914,11080,15377,0.062,550
2019-09-23T04:33:59,42.805,6.029,CST-1368DR,7914,11081,15379,0.061,551
2019-09-23T04:37:00,42.805,6.029,CST-1368DR,7914,11082,15380,0.061,551
2019-09-23T04:40:02,42.805,6.029,CST-1368DR,7914,11078,15375,0.062,550
2019-09-23T04:43:03,42.805,6.029,CST-1368DR,7914,11082,15381,0.061,551
2019-09-23T04:46:05,42.805,6.029,CST-1368DR,7914,11081,15380,0.061,551
2019-09-23T04:49:07,42.805,6.029,CST-1368DR,7914,11082,15381,0.061,551
2019-09-23T04:52:08,42.805,6.029,CST-1368DR,7914,11081,15379,0.061,551
2019-09-23T04:55:10,42.805,6.029,CST-1368DR,7914,11079,15377,0.062,551
2019-09-23T04:58:12,42.805,6.029,CST-1368DR,7914,11075,15370,0.064,551
2019-09-23T05:01:13,42.805,6.029,CST-1368DR,7914,11082,15381,0.061,551
2019-09-23T05:04:15,42.805,6.029,CST-1368DR,7913,11078,15377,0.062,551
2019-09-23T05:07:17,42.805,6.029,CST-1368DR,7914,11080,15378,0.061,551
2019-09-23T05:10:18,42.805,6.029,CST-1368DR,7914,11082,15380,0.061,551
2019-09-23T05:13:20,42.805,6.029,CST-1368DR,7913,11081,15380,0.061,551
2019-09-23T05:16:22,42.805,6.029,CST-1368DR,7913,11082,15382,0.060,551
2019-09-23T05:19:23,42.805,6.029,CST-1368DR,7913,11081,15381,0.061,551
2019-09-23T05:22:25,42.805,6.029,CST-1368DR,7913,11080,15380,0.061,551
2019-09-23T05:25:27,42.805,6.029,CST-1368DR,7913,11082,15382,0.060,551
2019-09-23T05:28:28,42.805,6.029,CST-1368DR,7913,11080,15379,0.061,551
2019-09-23T05:31:30,42.805,6.029,CST-1368DR,7913,11080,15379,0.061,551
2019-09-23T05:34:31,42.805,6.029,CST-1368DR,7913,11081,15381,0.061,551
2019-09-23T05:37:33,42.805,6.029,CST-1368DR,7913,11081,15380,0.061,551
2019-09-23T05:40:35,42.805,6.029,CST-1368DR,7913,11082,15382,0.060,551
2019-09-23T05:43:36,42.805,6.029,CST-1368DR,7913,11081,15381,0.061,551
2019-09-23T05:46:38,42.805,6.029,CST-1368DR,7913,11081,15380,0.061,551
2019-09-23T05:49:40,42.805,6.029,CST-1368DR,7913,11080,15380,0.061,551
2019-09-23T05:52:41,42.805,6.029,CST-1368DR,7913,11081,15381,0.061,551
2019-09-23T05:55:43,42.805,6.029,CST-1368DR,7913,11082,15382,0.060,551
2019-09-23T05:58:45,42.805,6.029,CST-1368DR,7913,11081,15381,0.061,551
2019-09-23T06:01:46,42.805,6.029,CST-1368DR,7913,11081,15380,0.061,551
2019-09-23T06:04:48,42.805,6.029,CST-1368DR,7913,11082,15382,0.060,551
2019-09-23T06:07:49,42.805,6.029,CST-1368DR,7913,11080,15380,0.061,551
2019-09-23T06:10:51,42.805,6.029,CST-1368DR,7913,11081,15381,0.061,551
2019-09-23T06:13:53,42.805,6.029,CST-1368DR,7913,11079,15378,0.061,551
2019-09-23T06:16:54,42.805,6.029,CST-1368DR,7913,11079,15378,0.061,551
2019-09-23T06:19:56,42.805,6.029,CST-1368DR,7913,11067,15361,0.066,551
2019-09-23T06:22:58,42.805,6.029,CST-1368DR,7913,11082,15382,0.060,551
2019-09-23T06:25:59,42.805,6.029,CST-1368DR,7913,11080,15379,0.061,551
2019-09-23T06:29:01,42.805,6.029,CST-1368DR,7913,11076,15374,0.062,551
2019-09-23T06:32:03,42.805,6.029,CST-1368DR,7913,11079,15378,0.061,551
2019-09-23T06:35:04,42.805,6.029,CST-1368DR,7913,11081,15381,0.061,551
2019-09-23T06:38:06,42.805,6.029,CST-1368DR,7913,11081,15381,0.061,551
2019-09-23T06:41:07,42.805,6.029,CST-1368DR,7913,11077,15376,0.062,551
2019-09-23T06:44:09,42.805,6.029,CST-1368DR,7913,11079,15378,0.061,551
2019-09-23T06:47:11,42.805,6.029,CST-1368DR,7913,11080,15380,0.061,551
2019-09-23T06:50:12,42.805,6.029,CST-1368DR,7913,11081,15380,0.061,551
2019-09-23T06:53:14,42.805,6.029,CST-1368DR,7912,11051,15341,0.071,551
2019-09-23T06:56:16,42.805,6.029,CST-1368DR,7913,11079,15379,0.061,550
2019-09-23T06:59:17,42.805,6.029,CST-1368DR,7913,11079,15378,0.061,551
2019-09-23T07:02:19,42.805,6.029,CST-1368DR,7913,11081,15380,0.061,551
2019-09-23T07:05:20,42.805,6.029,CST-1368DR,7913,11079,15378,0.061,551
2019-09-23T07:08:22,42.805,6.029,CST-1368DR,7913,11080,15380,0.061,551
2019-09-23T07:11:24,42.805,6.029,CST-1368DR,7913,11078,15377,0.062,551
2019-09-23T07:14:25,42.805,6.029,CST-1368DR,7913,11079,15378,0.061,551
2019-09-23T07:17:27,42.805,6.029,CST-1368DR,7913,11078,15377,0.062,551
2019-09-23T07:20:29,42.805,6.029,CST-1368DR,7912,11078,15378,0.061,551
2019-09-23T07:23:30,42.805,6.029,CST-1368DR,7912,11080,15381,0.061,551
2019-09-23T07:26:32,42.805,6.029,CST-1368DR,7912,11079,15380,0.061,551
2019-09-23T07:29:34,42.805,6.029,CST-1368DR,7912,11081,15382,0.060,551
2019-09-23T07:32:35,42.805,6.029,CST-1368DR,7912,11078,15379,0.061,551
2019-09-23T07:35:37,42.805,6.029,CST-1368DR,7912,11078,15379,0.061,551
2019-09-23T07:38:39,42.805,6.029,CST-1368DR,7912,11080,15381,0.061,551
2019-09-23T07:41:41,42.805,6.029,CST-1368DR,7912,11080,15381,0.061,551
2019-09-23T07:44:42,42.805,6.029,CST-1368DR,7912,11079,15380,0.061,551
2019-09-23T07:47:44,42.805,6.029,CST-1368DR,7912,11077,15378,0.061,551
2019-09-23T07:50:46,42.805,6.029,CST-1368DR,7912,11081,15382,0.060,551
2019-09-23T07:53:48,42.805,6.029,CST-1368DR,7912,11079,15379,0.061,551
2019-09-23T07:56:49,42.805,6.029,CST-1368DR,7912,11078,15379,0.061,551
2019-09-23T07:59:51,42.805,6.029,CST-1368DR,7912,11079,15380,0.061,551
2019-09-23T08:02:53,42.805,6.029,CST-1368DR,7912,11079,15380,0.061,551
2019-09-23T08:05:54,42.805,6.029,CST-1368DR,7912,11080,15381,0.061,551
2019-09-23T08:08:56,42.805,6.029,CST-1368DR,7912,11079,15380,0.061,551
2019-09-23T08:11:58,42.805,6.029,CST-1368DR,7912,11081,15382,0.060,551
2019-09-23T08:15:00,42.805,6.029,CST-1368DR,7912,11079,15380,0.061,551
2019-09-23T08:18:01,42.805,6.029,CST-1368DR,7912,11074,15373,0.063,551
2019-09-23T08:21:03,42.805,6.029,CST-1368DR,7912,11080,15382,0.060,551
2019-09-23T08:24:05,42.805,6.029,CST-1368DR,7912,11080,15381,0.061,551
2019-09-23T08:27:06,42.805,6.029,CST-1368DR,7912,11080,15381,0.061,551
2019-09-23T08:30:08,42.805,6.029,CST-1368DR,7912,11079,15380,0.061,551
2019-09-23T08:33:10,42.805,6.029,CST-1368DR,7912,11080,15381,0.061,551
2019-09-23T08:36:11,42.805,6.029,CST-1368DR,7912,11079,15379,0.061,551
2019-09-23T08:39:13,42.805,6.029,CST-1368DR,7912,11079,15379,0.061,551
2019-09-23T08:42:15,42.805,6.029,CST-1368DR,7912,11080,15382,0.060,551
2019-09-23T08:45:16,42.805,6.029,CST-1368DR,7912,11079,15380,0.061,551
2019-09-23T08:48:18,42.805,6.029,CST-1368DR,7912,11079,15380,0.061,551
2019-09-23T08:51:20,42.805,6.029,CST-1368DR,7912,11080,15381,0.061,551
2019-09-23T08:54:21,42.805,6.029,CST-1368DR,7912,11078,15379,0.061,551
2019-09-23T08:57:23,42.805,6.029,CST-1368DR,7912,11079,15380,0.061,551
2019-09-23T09:00:24,42.805,6.029,CST-1368DR,7912,11079,15379,0.061,551
2019-09-23T09:03:26,42.805,6.029,CST-1368DR,7912,11079,15380,0.061,551
2019-09-23T09:06:28,42.805,6.029,CST-1368DR,7912,11079,15379,0.061,551
2019-09-23T09:09:29,42.805,6.029,CST-1368DR,7912,11079,15379,0.061,550
2019-09-23T09:12:31,42.805,6.029,CST-1368DR,7912,11079,15380,0.061,551
2019-09-23T09:15:33,42.805,6.029,CST-1368DR,7912,11077,15378,0.061,551
2019-09-23T09:18:34,42.805,6.029,CST-1368DR,7912,11079,15380,0.061,551
2019-09-23T09:21:36,42.805,6.029,CST-1368DR,7912,11079,15380,0.061,551
2019-09-23T09:24:38,42.805,6.029,CST-1368DR,7912,11079,15380,0.061,551
2019-09-23T09:27:39,42.805,6.029,CST-1368DR,7912,11078,15379,0.061,551
2019-09-23T09:30:41,42.805,6.029,CST-1368DR,7911,11078,15380,0.061,551
2019-09-23T09:33:43,42.805,6.029,CST-1368DR,7911,11079,15382,0.060,551
2019-09-23T09:36:44,42.805,6.029,CST-1368DR,7911,11077,15378,0.061,551
2019-09-23T09:39:46,42.805,6.029,CST-1368DR,7911,11077,15379,0.061,551
2019-09-23T09:42:48,42.805,6.029,CST-1368DR,7911,11078,15381,0.061,551
2019-09-23T09:45:49,42.805,6.029,CST-1368DR,7911,11079,15381,0.061,551
2019-09-23T09:48:51,42.805,6.029,CST-1368DR,7911,11076,15378,0.061,550
2019-09-23T09:51:53,42.805,6.029,CST-1368DR,7911,11078,15381,0.061,551
2019-09-23T09:54:54,42.805,6.029,CST-1368DR,7911,11076,15377,0.062,551
2019-09-23T09:57:56,42.805,6.029,CST-1368DR,7911,11077,15378,0.061,551
2019-09-23T10:00:58,42.805,6.029,CST-1368DR,7911,11077,15379,0.061,551
2019-09-23T10:03:59,42.805,6.029,CST-1368DR,7911,11072,15372,0.063,551
2019-09-23T10:07:01,42.805,6.029,CST-1368DR,7911,11077,15379,0.061,551
2019-09-23T10:10:03,42.805,6.029,CST-1368DR,7911,11078,15380,0.061,551
2019-09-23T10:13:04,42.805,6.029,CST-1368DR,7911,11078,15380,0.061,551
2019-09-23T10:16:06,42.805,6.029,CST-1368DR,7911,11076,15377,0.062,550
2019-09-23T10:19:07,42.805,6.029,CST-1368DR,7911,11078,15380,0.061,551
2019-09-23T10:22:09,42.805,6.029,CST-1368DR,7911,11077,15379,0.061,551
2019-09-23T10:25:11,42.805,6.029,CST-1368DR,7911,11077,15379,0.061,551
2019-09-23T10:28:12,42.805,6.029,CST-1368DR,7911,11078,15380,0.061,551
2019-09-23T10:31:14,42.805,6.029,CST-1368DR,7911,11078,15380,0.061,550
2019-09-23T10:34:16,42.805,6.029,CST-1368DR,7911,11073,15374,0.062,551
2019-09-23T10:37:17,42.805,6.029,CST-1368DR,7911,11079,15382,0.060,551
2019-09-23T10:40:19,42.805,6.029,CST-1368DR,7911,11077,15379,0.061,551
2019-09-23T10:43:20,42.805,6.029,CST-1368DR,7911,11078,15381,0.061,551
2019-09-23T10:46:22,42.805,6.029,CST-1368DR,7911,11074,15374,0.062,551
2019-09-23T10:49:24,42.805,6.029,CST-1368DR,7911,11076,15378,0.061,551
2019-09-23T10:52:25,42.805,6.029,CST-1368DR,7911,11074,15375,0.062,551
2019-09-23T10:55:27,42.805,6.029,CST-1368DR,7911,11077,15379,0.061,551
2019-09-23T10:58:29,42.805,6.029,CST-1368DR,7911,11078,15380,0.061,551
2019-09-23T11:01:30,42.805,6.029,CST-1368DR,7911,11057,15352,0.068,551
2019-09-23T11:04:32,42.805,6.029,CST-1368DR,7911,11074,15375,0.062,551
2019-09-23T11:07:34,42.805,6.029,CST-1368DR,7911,11077,15379,0.061,551
2019-09-23T11:10:35,42.805,6.029,CST-1368DR,7911,11076,15378,0.061,551
2019-09-23T11:13:37,42.805,6.029,CST-1368DR,7911,11076,15377,0.062,551
2019-09-23T11:16:38,42.805,6.029,CST-1368DR,7911,11074,15375,0.062,551
2019-09-23T11:19:40,42.805,6.029,CST-1368DR,7911,11076,15377,0.062,551
2019-09-23T11:22:42,42.805,6.029,CST-1368DR,7911,11072,15371,0.063,551
2019-09-23T11:25:43,42.805,6.029,CST-1368DR,7911,11078,15380,0.061,551
2019-09-23T11:28:45,42.805,6.029,CST-1368DR,7911,11077,15379,0.061,551
2019-09-23T11:31:47,42.805,6.029,CST-1368DR,7911,11072,15372,0.063,551
2019-09-23T11:34:48,42.805,6.029,CST-1368DR,7911,11077,15379,0.061,551
2019-09-23T11:37:50,42.805,6.029,CST-1368DR,7911,11075,15377,0.062,551
2019-09-23T11:40:52,42.805,6.029,CST-1368DR,7910,11078,15382,0.060,551
2019-09-23T11:43:53,42.805,6.029,CST-1368DR,7911,11079,15382,0.060,551
2019-09-23T11:46:55,42.805,6.029,CST-1368DR,7910,11078,15382,0.060,550
2019-09-23T11:49:57,42.805,6.029,CST-1368DR,7910,11072,15374,0.062,551
2019-09-23T11:52:58,42.805,6.029,CST-1368DR,7910,11078,15382,0.060,551
2019-09-23T11:56:00,42.805,6.029,CST-1368DR,7910,11055,15350,0.069,551
2019-09-23T11:59:02,42.805,6.029,CST-1368DR,7910,11077,15381,0.061,550
2019-09-23T12:02:03,42.805,6.029,CST-1368DR,7910,11074,15376,0.062,551
2019-09-23T12:05:05,42.805,6.029,CST-1368DR,7910,11073,15375,0.062,550
2019-09-23T12:08:07,42.805,6.029,CST-1368DR,7910,11075,15378,0.061,551
2019-09-23T12:11:08,42.805,6.029,CST-1368DR,7910,11076,15379,0.061,551
2019-09-23T12:14:10,42.805,6.029,CST-1368DR,7910,11078,15382,0.060,551
2019-09-23T12:17:11,42.805,6.029,CST-1368DR,7910,11074,15376,0.062,551
2019-09-23T12:20:13,42.805,6.029,CST-1368DR,7910,11077,15380,0.061,551
2019-09-23T12:23:15,42.805,6.029,CST-1368DR,7910,11074,15377,0.062,551
2019-09-23T12:26:16,42.805,6.029,CST-1368DR,7910,11079,15383,0.060,551
2019-09-23T12:29:18,42.805,6.029,CST-1368DR,7910,11077,15381,0.061,551
2019-09-23T12:32:20,42.805,6.029,CST-1368DR,7910,11075,15378,0.061,551
2019-09-23T12:35:21,42.805,6.029,CST-1368DR,7910,11076,15380,0.061,551
2019-09-23T12:38:23,42.805,6.029,CST-1368DR,7910,11074,15376,0.062,551
2019-09-23T12:41:25,42.805,6.029,CST-1368DR,7910,11074,15377,0.062,551
2019-09-23T12:44:26,42.805,6.029,CST-1368DR,7910,11072,15374,0.062,551
2019-09-23T12:47:28,42.805,6.029,CST-1368DR,7910,11074,15377,0.062,551
2019-09-23T12:50:30,42.805,6.029,CST-1368DR,7910,11077,15381,0.061,550
2019-09-23T12:53:31,42.805,6.029,CST-1368DR,7910,11077,15381,0.061,551
2019-09-23T12:56:33,42.805,6.029,CST-1368DR,7910,11078,15382,0.060,551
2019-09-23T12:59:34,42.805,6.029,CST-1368DR,7910,11071,15373,0.063,551
2019-09-23T13:02:36,42.805,6.029,CST-1368DR,7910,11074,15377,0.062,551
2019-09-23T13:05:38,42.805,6.029,CST-1368DR,7910,11077,15381,0.061,551
2019-09-23T13:08:39,42.805,6.029,CST-1368DR,7910,11077,15380,0.061,551
2019-09-23T13:11:41,42.805,6.029,CST-1368DR,7910,11075,15377,0.062,551
2019-09-23T13:14:43,42.805,6.029,CST-1368DR,7910,11076,15379,0.061,551
2019-09-23T13:17:44,42.805,6.029,CST-1368DR,7910,11077,15380,0.061,551
2019-09-23T13:20:46,42.805,6.029,CST-1368DR,7910,11075,15378,0.061,551
2019-09-23T13:23:47,42.805,6.029,CST-1368DR,7910,11078,15382,0.060,550
2019-09-23T13:26:49,42.805,6.029,CST-1368DR,7910,11077,15381,0.061,550
2019-09-23T13:29:51,42.805,6.029,CST-1368DR,7910,11076,15380,0.061,551
2019-09-23T13:32:52,42.805,6.029,CST-1368DR,7910,11077,15381,0.061,551
2019-09-23T13:35:54,42.805,6.029,CST-1368DR,7910,11075,15378,0.061,551
2019-09-23T13:38:56,42.805,6.029,CST-1368DR,7910,11078,15382,0.060,551
2019-09-23T13:41:57,42.805,6.029,CST-1368DR,7909,11068,15370,0.064,551
2019-09-23T13:44:59,42.805,6.029,CST-1368DR,7909,11077,15383,0.060,551
2019-09-23T13:48:01,42.805,6.029,CST-1368DR,7909,11077,15383,0.060,551
2019-09-23T13:51:02,42.805,6.029,CST-1368DR,7909,11077,15383,0.060,551
2019-09-23T13:54:04,42.805,6.029,CST-1368DR,7909,11071,15375,0.062,551
2019-09-23T13:57:06,42.805,6.029,CST-1368DR,7909,11076,15382,0.060,551
2019-09-23T14:00:07,42.805,6.029,CST-1368DR,7909,11076,15381,0.061,551
2019-09-23T14:03:09,42.805,6.029,CST-1368DR,7909,11075,15380,0.061,551
2019-09-23T14:06:10,42.805,6.029,CST-1368DR,7909,11077,15382,0.060,551
2019-09-23T14:09:12,42.805,6.029,CST-1368DR,7909,11077,15382,0.060,551
2019-09-23T14:12:14,42.805,6.029,CST-1368DR,7909,11076,15382,0.060,551
2019-09-23T14:15:16,42.805,6.029,CST-1368DR,7909,11077,15382,0.060,551
2019-09-23T14:18:17,42.805,6.029,CST-1368DR,7909,11077,15382,0.060,551
2019-09-23T14:21:19,42.805,6.029,CST-1368DR,7909,11075,15380,0.061,551
2019-09-23T14:24:21,42.805,6.029,CST-1368DR,7909,11073,15377,0.062,551
2019-09-23T14:27:22,42.805,6.029,CST-1368DR,7909,11075,15380,0.061,551
2019-09-23T14:30:24,42.805,6.029,CST-1368DR,7909,11075,15380,0.061,551
2019-09-23T14:33:25,42.805,6.029,CST-1368DR,7909,11075,15380,0.061,551
2019-09-23T14:36:28,42.805,6.029,CST-1368DR,7909,11073,15377,0.062,551
2019-09-23T14:39:29,42.805,6.029,CST-1368DR,7909,11074,15379,0.061,551
2019-09-23T14:42:31,42.805,6.029,CST-1368DR,7909,11076,15382,0.060,551
2019-09-23T14:45:33,42.805,6.029,CST-1368DR,7909,11076,15381,0.061,551
2019-09-23T14:48:34,42.805,6.029,CST-1368DR,7909,11074,15379,0.061,551
2019-09-23T14:51:36,42.805,6.029,CST-1368DR,7909,11077,15383,0.060,551
2019-09-23T14:54:38,42.805,6.029,CST-1368DR,7909,11076,15382,0.060,551
2019-09-23T14:57:39,42.805,6.029,CST-1368DR,7909,11076,15382,0.060,551
2019-09-23T15:00:41,42.805,6.029,CST-1368DR,7909,11077,15382,0.060,551
2019-09-23T15:03:43,42.805,6.029,CST-1368DR,7909,11075,15380,0.061,551
2019-09-23T15:06:44,42.805,6.029,CST-1368DR,7909,11074,15378,0.061,551
2019-09-23T15:09:46,42.805,6.029,CST-1368DR,7909,11076,15381,0.061,551
2019-09-23T15:12:48,42.805,6.029,CST-1368DR,7909,11074,15378,0.061,550
2019-09-23T15:15:49,42.805,6.029,CST-1368DR,7909,11075,15380,0.061,551
2019-09-23T15:18:51,42.805,6.029,CST-1368DR,7909,11072,15376,0.062,550
2019-09-23T15:21:53,42.805,6.029,CST-1368DR,7909,11075,15380,0.061,550
2019-09-23T15:24:54,42.805,6.029,CST-1368DR,7909,11074,15379,0.061,551
2019-09-23T15:27:56,42.805,6.029,CST-1368DR,7909,11071,15375,0.062,551
2019-09-23T15:30:58,42.805,6.029,CST-1368DR,7909,11069,15371,0.063,551
2019-09-23T15:33:59,42.805,6.029,CST-1368DR,7909,11065,15366,0.065,551
2019-09-23T15:37:01,42.805,6.029,CST-1368DR,7909,11072,15375,0.062,550
2019-09-23T15:40:02,42.805,6.029,CST-1368DR,7909,11074,15378,0.061,551
2019-09-23T15:43:04,42.805,6.029,CST-1368DR,7909,11075,15380,0.061,551
2019-09-23T15:46:06,42.805,6.029,CST-1368DR,7909,11074,15379,0.061,550
2019-09-23T15:49:07,42.805,6.029,CST-1368DR,7909,11073,15377,0.062,551
2019-09-23T15:52:09,42.805,6.029,CST-1368DR,7909,11074,15379,0.061,551
2019-09-23T15:55:11,42.805,6.029,CST-1368DR,7908,11075,15381,0.061,551
2019-09-23T15:58:12,42.805,6.029,CST-1368DR,7909,11075,15379,0.061,551
2019-09-23T16:01:14,42.805,6.029,CST-1368DR,7909,11076,15381,0.061,551
2019-09-23T16:04:15,42.805,6.029,CST-1368DR,7909,11073,15377,0.062,551
2019-09-23T16:07:17,42.805,6.029,CST-1368DR,7908,11076,15383,0.060,551
2019-09-23T16:10:19,42.805,6.029,CST-1368DR,7909,11076,15381,0.061,551
2019-09-23T16:13:20,42.805,6.029,CST-1368DR,7909,11075,15380,0.061,551
2019-09-23T16:16:22,42.805,6.029,CST-1368DR,7908,11075,15381,0.061,551
2019-09-23T16:19:24,42.805,6.029,CST-1368DR,7908,11074,15380,0.061,551
2019-09-23T16:22:25,42.805,6.029,CST-1368DR,7908,11073,15379,0.061,551
2019-09-23T16:25:27,42.805,6.029,CST-1368DR,7908,11075,15382,0.060,551
2019-09-23T16:28:29,42.805,6.029,CST-1368DR,7908,11075,15382,0.060,551
2019-09-23T16:31:30,42.805,6.029,CST-1368DR,7908,11074,15380,0.061,550
2019-09-23T16:34:32,42.805,6.029,CST-1368DR,7908,11074,15381,0.061,551
2019-09-23T16:37:34,42.805,6.029,CST-1368DR,7908,11074,15381,0.061,551